Stations météo

réclame
Mon MeteoGroup
Schleswig, Allemagne (10035): Température de l'air & dewpoint: 04.12.2018 23:00:00 - 10.12.2018 23:00:00 (CET)Schleswig, Allemagne (10035): Température de l'air 5cm & Température de l'air -5cm: 04.12.2018 23:00:00 - 10.12.2018 23:00:00 (CET)Schleswig, Allemagne (10035): Température de l'air -20cm & Température de l'air -100cm: 04.12.2018 23:00:00 - 10.12.2018 23:00:00 (CET)Schleswig, Allemagne (10035): Vitesse du vent & gusts: 04.12.2018 23:00:00 - 10.12.2018 23:00:00 (CET)Schleswig, Allemagne (10035): Direction du vent: 04.12.2018 23:00:00 - 10.12.2018 23:00:00 (CET)Schleswig, Allemagne (10035): reduced air pressure: 04.12.2018 23:00:00 - 10.12.2018 23:00:00 (CET)Schleswig, Allemagne (10035): visibility: 04.12.2018 23:00:00 - 10.12.2018 23:00:00 (CET)Schleswig, Allemagne (10035): Ensoleillement: 04.12.2018 23:00:00 - 10.12.2018 23:00:00 (CET)Schleswig, Allemagne (10035): Quantités de précipitations: 04.12.2018 23:00:00 - 10.12.2018 23:00:00 (CET)
Date & Time tt [°C] td [°C] tt 5cm [°C] tt -5cm [°C] tt -20cm [°C] tt -100cm [°C] ff [km/h] ff [knt] fx [km/h] fx [knt] dd ppp [hPa] vv [km] sd [min] rr [mm]
10.12.2018 23:00:00 4,6 1,9 3,1 2,2 4,4 7,9 21 11 39 21 NW 1012,0 21 0 0,0
10.12.2018 22:00:00 4,8 2,0 3,5 2,3 4,5 7,9 22 12 39 21 NW 1011,6 20 0 0,0
10.12.2018 21:00:00 4,2 1,8 2,7 2,2 4,7 7,9 18 10 30 16 WNW 1011,5 20 0 0,0
10.12.2018 20:00:00 4,3 2,0 2,7 2,6 4,8 7,9 17 9 30 16 WNW 1010,8 20 0 0,0
10.12.2018 19:00:00 5,0 1,9 3,7 3,2 4,8 7,9 19 11 41 22 NW 1010,2 25 0 0,0
10.12.2018 18:00:00 5,7 2,0 5,0 3,7 4,8 7,9 24 13 47 25 NW 1009,9 20 0 0,0
10.12.2018 17:00:00 5,7 2,1 5,0 3,6 4,8 8,0 26 14 50 27 WNW 1009,4 25 0 0,0
10.12.2018 16:00:00 5,2 2,1 4,0 3,6 4,8 8,0 22 12 47 26 WNW 1009,1 28 0 0,0
10.12.2018 15:00:00 5,7 1,8 4,8 4,4 4,8 8,0 28 15 50 27 WNW 1008,5 28 25 0,0
10.12.2018 14:00:00 4,7 1,8 3,8 4,5 4,6 8,0 24 13 68 37 WNW 1008,6 40 20 0,1
10.12.2018 13:00:00 4,8 1,6 4,1 4,5 4,6 8,0 34 18 56 30 WNW 1008,6 40 10 0,0
10.12.2018 12:00:00 5,0 2,0 4,1 4,0 4,5 8,0 33 18 59 32 WNW 1009,1 30 49 0,0
10.12.2018 11:00:00 4,7 1,4 3,0 3,3 4,5 8,0 24 13 56 30 WNW 1009,3 35 11 0,3
10.12.2018 10:00:00 4,3 2,0 3,7 2,6 4,5 8,0 16 9 48 26 W 1009,2 35 10 0,0
10.12.2018 09:00:00 3,4 1,4 2,0 2,3 4,6 8,0 19 11 46 25 WNW 1008,5 30 0 0,3
10.12.2018 08:00:00 4,5 0,7 3,2 2,3 4,7 8,0 20 11 42 23 WNW 1008,0 35 0 0,0
10.12.2018 07:00:00 4,2 0,0 3,1 2,1 4,8 8,0 27 15 49 26 WNW 1007,3 40 0 0,0
10.12.2018 06:00:00 4,3 0,6 2,9 2,5 4,9 8,0 24 13 46 25 WNW 1006,9 35 0 0,0
10.12.2018 05:00:00 4,4 0,2 3,1 2,2 5,1 8,0 23 13 42 23 WNW 1006,1 30 0 0,0
10.12.2018 04:00:00 4,4 0,9 3,1 2,6 5,2 8,0 23 12 39 21 WNW 1005,7 29 0 0,0
10.12.2018 03:00:00 4,3 1,5 2,9 2,9 5,3 7,9 17 9 49 26 WNW 1005,4 30 0 0,0
10.12.2018 02:00:00 4,6 1,9 3,3 2,9 5,4 7,9 23 13 44 24 WNW 1004,7 30 0 0,0
10.12.2018 01:00:00 4,9 1,6 3,7 3,2 5,6 7,9 30 16 54 29 WNW 1004,0 41 0 0,0
10.12.2018 00:00:00 4,7 1,7 3,6 3,3 5,7 7,9 27 14 51 28 WNW 1002,9 40 0 0,0
09.12.2018 23:00:00 5,0 1,9 3,6 3,5 5,8 7,9 21 12 38 21 WNW 1002,1 28 0 0,0
09.12.2018 22:00:00 5,5 2,2 4,5 4,2 5,9 7,9 24 13 50 27 WNW 1001,0 27 0 0,0
09.12.2018 21:00:00 5,8 2,7 5,1 4,1 6,0 7,9 23 12 52 28 WNW 999,7 27 0 0,0
09.12.2018 20:00:00 5,7 2,2 4,6 3,9 6,2 7,9 24 13 49 26 WNW 998,1 29 0 0,0
09.12.2018 19:00:00 5,9 2,1 4,5 4,1 6,3 7,9 31 17 55 30 NW 996,4 27 0 0,0
09.12.2018 18:00:00 6,1 3,1 4,8 4,7 6,4 7,9 28 15 50 27 WNW 994,8 21 0 0,0
09.12.2018 17:00:00 6,2 3,6 4,8 5,4 6,5 7,9 29 16 53 28 WNW 993,2 20 0 0,0
09.12.2018 16:00:00 6,8 4,0 5,6 5,9 6,5 7,9 29 16 55 30 WNW 991,9 25 0 0,0
09.12.2018 15:00:00 6,9 4,6 6,3 6,3 6,5 7,9 26 14 42 23 WNW 990,7 30 0 0,2
09.12.2018 14:00:00 6,6 5,0 5,9 6,5 6,4 7,9 26 14 52 28 WNW 989,8 10 0 0,2
09.12.2018 13:00:00 6,6 5,8 6,4 6,5 6,3 7,9 17 9 37 20 W 988,8 20 0 1,3
09.12.2018 12:00:00 6,6 5,4 6,1 6,6 6,3 7,9 26 14 46 25 W 988,5 10 40 1,1
09.12.2018 11:00:00 6,4 5,0 5,4 5,2 6,4 7,9 15 8 27 14 WSW 988,0 30 15 0,0
09.12.2018 10:00:00 6,1 5,2 5,1 5,4 6,4 7,9 16 8 26 14 W 987,3 30 3 0,0
09.12.2018 09:00:00 6,1 5,4 5,3 5,4 6,5 7,9 16 9 29 16 W 986,3 30 0 0,1
09.12.2018 08:00:00 6,4 5,8 5,8 5,6 6,5 7,9 15 8 27 14 W 985,3 20 0 0,1
09.12.2018 07:00:00 6,1 5,6 5,5 5,6 6,6 7,9 14 8 32 17 WSW 984,6 20 0 0,4
09.12.2018 06:00:00 6,4 5,5 5,5 5,8 6,6 7,9 16 8 32 18 WSW 984,0 20 0 0,3
09.12.2018 05:00:00 6,7 5,9 6,2 6,0 6,6 7,9 20 11 34 19 WSW 983,6 15 0 0,0
09.12.2018 04:00:00 6,5 5,9 6,0 6,1 6,7 7,9 17 9 32 18 WSW 983,5 22 0 0,2
09.12.2018 03:00:00 6,6 6,0 6,3 6,2 6,7 7,9 16 9 35 19 WSW 983,3 20 0 0,0
09.12.2018 02:00:00 6,4 5,7 6,3 6,1 6,7 7,9 16 9 34 18 WSW 983,6 22 0 0,0
09.12.2018 01:00:00 6,5 5,5 6,3 6,2 6,8 7,9 19 10 36 19 SW 984,1 25 0 0,0
09.12.2018 00:00:00 7,0 5,5 6,5 6,3 6,8 7,8 20 11 38 21 SW 985,1 24 0 0,0
08.12.2018 23:00:00 7,0 5,4 6,6 6,3 6,8 7,8 21 11 45 24 SW 986,1 24 0 0,0
08.12.2018 22:00:00 7,2 6,0 6,6 6,6 6,8 7,8 23 12 53 28 SW 986,7 15 0 0,9
08.12.2018 21:00:00 7,2 6,3 6,7 6,7 6,8 7,8 27 15 58 31 WSW 987,7 6 0 0,8
08.12.2018 20:00:00 7,4 6,6 6,8 6,7 6,8 7,8 26 14 54 29 WSW 988,1 3,0 0 0,8
08.12.2018 19:00:00 7,7 6,3 6,9 6,6 6,8 7,8 41 22 69 37 WSW 988,3 5 0 0,8
08.12.2018 18:00:00 8,0 6,3 7,5 6,7 6,8 7,8 29 16 66 36 WSW 988,3 14 0 0,0
08.12.2018 17:00:00 7,6 6,7 7,0 7,0 6,8 7,8 29 16 59 32 WSW 988,4 10 0 1,6
08.12.2018 16:00:00 8,2 6,7 7,3 7,0 6,8 7,8 34 18 53 28 WSW 988,3 20 0 0,9
08.12.2018 15:00:00 8,0 6,8 7,6 7,1 6,7 7,8 27 15 58 32 SW 988,3 16 0 0,1
08.12.2018 14:00:00 7,7 6,3 7,3 6,9 6,7 7,8 26 14 55 30 WSW 988,9 10 0 0,7
08.12.2018 13:00:00 7,4 6,8 7,0 6,7 6,6 7,8 28 15 61 33 WSW 989,1 10 0 1,3
08.12.2018 12:00:00 7,0 6,4 6,6 6,5 6,6 7,8 34 18 60 32 SW 989,7 10 0 0,6
08.12.2018 11:00:00 6,8 5,9 6,3 6,3 6,6 7,8 31 17 58 31 SW 990,4 6 0 0,1
08.12.2018 10:00:00 6,7 5,5 6,2 6,0 6,6 7,8 31 17 56 31 SW 991,1 18 0 0,3
08.12.2018 09:00:00 6,2 5,2 5,7 5,7 6,6 7,7 29 16 62 33 SW 991,9 6 0 0,4
08.12.2018 08:00:00 6,0 4,7 5,4 5,6 6,7 7,7 29 16 62 34 SW 992,2 16 0 0,2
08.12.2018 07:00:00 5,6 4,5 5,1 5,5 6,8 7,7 29 15 58 31 SW 992,3 10 0 1,6
08.12.2018 06:00:00 5,3 4,4 4,8 5,4 6,9 7,7 28 15 51 27 SW 993,2 10 0 2,2
08.12.2018 05:00:00 5,9 3,7 5,3 5,4 7,1 7,7 25 13 51 28 SW 993,9 24 0 0,0
08.12.2018 04:00:00 5,6 3,4 4,7 5,2 7,3 7,7 19 10 39 21 SW 994,4 25 0 0,0
08.12.2018 03:00:00 6,1 2,9 5,0 5,6 7,5 7,7 21 11 44 24 WSW 994,4 35 0 0,0
08.12.2018 02:00:00 6,6 3,8 5,7 6,1 7,6 7,7 21 12 50 27 WSW 994,3 23 0 0,0
08.12.2018 01:00:00 6,7 4,5 5,6 6,7 7,8 7,7 21 12 45 24 WSW 993,6 26 0 0,0
08.12.2018 00:00:00 6,5 5,1 5,9 7,1 7,9 7,7 26 14 45 25 WSW 993,3 14 0 0,2
07.12.2018 23:00:00 6,7 5,8 6,3 7,7 8,0 7,7 18 10 42 23 W 992,5 21 0 0,3
07.12.2018 22:00:00 7,4 7,2 7,3 8,4 8,0 7,7 22 12 47 26 W 991,6 3,6 0 1,3
07.12.2018 21:00:00 9,8 9,5 9,5 9,1 7,9 7,7 25 13 47 25 SW 989,9 4,9 0 2,0
07.12.2018 20:00:00 10,2 9,6 9,7 9,2 7,9 7,7 24 13 48 26 SSW 990,2 12 0 1,1
07.12.2018 19:00:00 10,1 9,9 9,9 9,3 7,8 7,7 24 13 49 26 SSW 991,2 4,0 0 1,8
07.12.2018 18:00:00 10,4 9,9 10,0 9,3 7,8 7,7 23 13 52 28 SSW 992,2 8 0 0,4
07.12.2018 17:00:00 10,6 9,9 10,1 9,4 7,7 7,7 29 15 49 26 SSW 993,4 10 0 0,1
07.12.2018 16:00:00 10,6 10,1 10,2 9,4 7,6 7,7 27 15 44 24 SW 994,5 3,0 0 0,1
07.12.2018 15:00:00 10,7 10,2 10,3 9,5 7,5 7,7 26 14 49 26 SW 995,6 10 0 0,3
07.12.2018 14:00:00 10,6 10,3 10,4 9,5 7,4 7,7 24 13 45 24 SW 997,0 2,5 0 1,4
07.12.2018 13:00:00 10,6 10,4 10,4 9,4 7,2 7,7 21 11 39 21 SSW 998,2 4,0 0 2,4
07.12.2018 12:00:00 10,6 10,5 10,4 9,2 7,1 7,7 17 9 36 19 SSW 999,8 4,5 0 1,0
07.12.2018 11:00:00 10,6 10,5 10,4 8,9 7,0 7,7 18 10 35 19 SSW 1001,1 3,0 0 0,5
07.12.2018 10:00:00 10,0 10,0 9,9 8,4 6,9 7,7 14 8 25 13 SSW 1002,3 2,0 0 0,4
07.12.2018 09:00:00 9,3 9,3 9,1 8,1 6,9 7,7 12 6 22 12 SSW 1003,2 2,0 0 0,3
07.12.2018 08:00:00 9,0 9,0 8,9 8,0 6,8 7,7 11 6 24 13 SW 1004,2 2,5 0 0,4
07.12.2018 07:00:00 8,9 8,9 8,9 8,0 6,7 7,7 11 6 24 13 SW 1004,7 2,8 0 0,2
07.12.2018 06:00:00 9,1 9,1 9,0 8,1 6,7 7,7 14 7 23 13 WSW 1005,4 0,4 0 0,0
07.12.2018 05:00:00 9,6 9,6 9,4 8,1 6,6 7,7 14 8 27 14 WSW 1005,7 1,6 0 0,0
07.12.2018 04:00:00 9,6 9,5 9,4 8,1 6,5 7,7 16 8 41 22 WSW 1005,8 7 0 0,0
07.12.2018 03:00:00 9,7 9,6 9,4 8,2 6,4 7,7 19 11 47 26 WSW 1006,1 8 0 0,1
07.12.2018 02:00:00 9,8 9,7 9,5 8,1 6,3 7,8 25 14 50 27 W 1006,1 6 0 0,3
07.12.2018 01:00:00 9,6 9,4 9,3 8,0 6,2 7,8 23 13 47 26 WSW 1006,4 2,0 0 1,0
07.12.2018 00:00:00 9,5 9,3 9,2 8,0 6,0 7,8 24 13 45 24 WSW 1006,5 2,4 0 1,3
06.12.2018 23:00:00 9,4 9,2 9,1 7,9 5,9 7,8 24 13 48 26 WSW 1007,4 5 0 1,9
06.12.2018 22:00:00 9,4 9,3 9,2 7,7 5,7 7,8 24 13 42 23 WSW 1007,7 2,1 0 0,3
06.12.2018 21:00:00 9,4 9,3 9,1 7,6 5,6 7,8 19 11 55 30 SW 1008,4 2,7 0 0,2
06.12.2018 20:00:00 9,7 9,6 9,4 7,4 5,4 7,8 24 13 46 25 WSW 1009,1 2,1 0 0,2
06.12.2018 19:00:00 9,1 8,9 8,9 7,0 5,3 7,8 19 11 38 20 WSW 1009,7 3,7 0 0,1
06.12.2018 18:00:00 8,8 8,7 8,5 6,8 5,1 7,8 17 9 36 20 WSW 1010,0 3,6 0 0,0
06.12.2018 17:00:00 8,8 8,7 8,6 6,8 5,0 7,8 19 11 35 19 WSW 1010,2 3,5 0 0,0
06.12.2018 16:00:00 8,9 8,9 8,8 6,4 4,8 7,8 19 10 31 17 WSW 1010,1 1,8 0 0,4
06.12.2018 15:00:00 7,9 7,9 7,8 6,0 4,6 7,9 16 9 28 15 SW 1010,5 0,4 0 0,1
06.12.2018 14:00:00 6,9 6,9 6,9 5,6 4,5 7,9 17 9 25 14 SSW 1010,6 0,8 0 0,3
06.12.2018 13:00:00 6,3 6,3 6,3 5,2 4,4 7,9 11 6 19 10 SSW 1011,4 0,6 0 0,0
06.12.2018 12:00:00 5,9 5,9 5,9 5,0 4,2 7,9 13 7 22 12 S 1011,6 1,0 0 0,0
06.12.2018 11:00:00 5,3 5,3 5,4 4,6 4,1 7,9 15 8 25 13 S 1011,4 1,8 0 0,1
06.12.2018 10:00:00 4,9 4,9 4,8 4,1 4,0 7,9 13 7 22 12 SSW 1012,3 1,5 0 0,0
06.12.2018 09:00:00 4,7 4,7 4,5 3,8 4,0 7,9 16 8 24 13 SSW 1012,1 2,5 0 0,1
06.12.2018 08:00:00 4,4 4,2 4,2 3,6 3,9 7,9 13 7 21 12 S 1012,1 2,0 0 0,0
06.12.2018 07:00:00 3,9 3,8 3,8 3,4 3,8 7,9 10 5 21 12 S 1011,9 2,0 0 0,0
06.12.2018 06:00:00 3,9 3,4 3,6 3,2 3,8 8,0 11 6 26 14 S 1012,4 6 0 0,1
06.12.2018 05:00:00 3,4 3,1 3,3 3,0 3,7 8,0 10 6 22 12 SSE 1012,8 2,3 0 0,0
06.12.2018 04:00:00 3,6 2,1 3,3 2,9 3,7 8,0 15 8 27 15 S 1012,8 14 0 0,0
06.12.2018 03:00:00 3,6 1,1 3,4 2,7 3,6 8,0 11 6 29 16 SSE 1013,8 33 0 0,0
06.12.2018 02:00:00 3,6 0,8 3,1 2,6 3,6 8,0 14 7 27 14 SSE 1014,4 35 0 0,0
06.12.2018 01:00:00 3,6 0,5 2,8 2,5 3,6 8,0 14 8 26 14 SSE 1015,5 30 0 0,0
06.12.2018 00:00:00 3,5 0,2 2,6 2,3 3,5 8,0 15 8 34 18 SSE 1016,5 29 0 0,1
05.12.2018 23:00:00 3,7 -0,2 3,3 2,2 3,5 8,0 12 6 23 13 S 1017,3 40 0 0,0
05.12.2018 22:00:00 3,5 -0,1 3,0 2,1 3,5 8,0 10 5 21 11 SE 1018,1 36 0 0,0
05.12.2018 21:00:00 3,3 0,6 2,6 1,8 3,5 8,0 11 6 23 12 SE 1018,9 33 0 0,0
05.12.2018 20:00:00 2,7 0,8 2,1 1,6 3,5 8,0 9 5 19 11 SSE 1019,5 21 0 0,0
05.12.2018 19:00:00 2,5 0,8 1,6 1,3 3,6 8,0 8 4 19 10 SSE 1020,5 18 0 0,0
05.12.2018 18:00:00 2,4 1,2 0,9 1,1 3,7 8,1 8 4 17 9 SSE 1021,1 11 0 0,0
05.12.2018 17:00:00 2,5 1,6 0,9 1,4 3,8 8,1 7 4 14 8 SSE 1022,0 7 0 0,0
05.12.2018 16:00:00 3,1 1,9 1,6 2,1 3,7 8,1 8 4 15 8 SSE 1022,5 10 0 0,0
05.12.2018 15:00:00 4,0 1,9 3,0 2,8 3,7 8,1 8 4 20 11 S 1023,3 15 16 0,0
05.12.2018 14:00:00 4,0 1,7 3,7 2,8 3,6 8,1 13 7 21 11 S 1024,0 15 51 0,0
05.12.2018 13:00:00 3,7 1,7 3,0 2,1 3,6 8,1 11 6 23 12 S 1024,1 15 33 0,0
05.12.2018 12:00:00 4,2 1,7 3,0 1,7 3,6 8,1 13 7 22 12 SSW 1024,7 25 60 0,0
05.12.2018 11:00:00 3,3 1,0 2,1 1,5 3,6 8,1 16 9 24 13 SSW 1025,2 25 60 0,0
05.12.2018 10:00:00 2,4 0,7 1,3 1,6 3,6 8,1 13 7 23 12 SSW 1025,3 25 37 0,0
05.12.2018 09:00:00 2,1 1,1 1,4 1,3 3,7 8,1 15 8 23 12 SSW 1025,2 15 3 0,0
05.12.2018 08:00:00 1,9 1,2 0,9 0,8 3,8 8,1 14 8 23 12 SSW 1024,9 12 0 0,0
05.12.2018 07:00:00 2,4 1,7 1,2 1,0 3,8 8,1 12 7 23 12 SW 1024,6 15 0 0,0
05.12.2018 06:00:00 2,4 2,0 1,2 1,2 3,9 8,1 13 7 21 11 SW 1024,5 14 0 0,0
05.12.2018 05:00:00 3,4 2,6 2,6 1,3 4,0 8,1 13 7 23 13 SW 1024,3 21 0 0,0
05.12.2018 04:00:00 2,5 1,9 1,7 1,0 4,1 8,1 14 8 21 11 SW 1023,9 22 0 0,0
05.12.2018 03:00:00 3,0 1,3 1,9 1,0 4,2 8,1 13 7 20 11 SW 1024,0 51 0 0,0
05.12.2018 02:00:00 2,9 0,9 1,1 0,9 4,3 8,1 10 5 21 11 SW 1023,8 62 0 0,0
05.12.2018 01:00:00 2,3 1,2 -1,9 0,9 4,5 8,1 10 5 21 12 W 1023,7 44 0 0,0
05.12.2018 00:00:00 2,2 0,9 -0,3 0,9 4,6 8,1 13 7 19 10 W 1023,6 47 0 0,0
04.12.2018 23:00:00 2,2 1,1 -2,2 1,0 4,8 8,1 8 5 18 10 WSW 1023,2 33 0 0,0

tt = Température de l'air
td = dewpoint
tt 5cm = Température de l'air 5cm
tt -5cm = Température de l'air -5cm
tt -20cm = Température de l'air -20cm
tt -100cm = Température de l'air -100cm
ff = Vitesse du vent
fx = gusts
dd = Direction du vent
ppp = reduced air pressure
vv = visibility
sd = Ensoleillement
rr = Quantités de précipitations

stations d'obs. à proximité